Weather History for Mullan Pass, ID

Change the Weather History Date:

Tuesday, October 23, 2012

  Actual Average (K3TH) Record (K3TH)
Temperature  
Mean Temperature 24 °F -  
Max Temperature 26 °F 51 °F 57 °F (1998)
Min Temperature 21 °F 33 °F 26 °F (2002)
Degree Days  
Heating Degree Days 42    
Moisture  
Dew Point 23 °F    
Average Humidity 96    
Maximum Humidity 100    
Minimum Humidity 86    
Precipitation  
Precipitation 0.28 in - - ()
Sea Level Pressure  
Sea Level Pressure 29.76 in    
Wind  
Wind Speed 5 mph (South)    
Max Wind Speed 10 mph    
Max Gust Speed 20 mph    
Visibility 4 miles    
Events Fog , Snow    
Averages and records for this station are not official NWS values.
T = Trace of Precipitation, MM = Missing Value Source: NWS Daily Summary

Daily Weather History Graph

Daily Weather History Graph

Search for Another Location

Airport:

Trip Planner

Search our weather history database for the weather conditions in past years. The results will help you decide how hot, cold, wet, or windy it might be!

Date:

Astronomy

Oct. 23, 2012 Rise Set
Actual Time 7:13 AM PDT 5:39 PM PDT
Civil Twilight 6:42 AM PDT 6:10 PM PDT
Nautical Twilight 6:06 AM PDT 6:46 PM PDT
Astronomical Twilight 5:30 AM PDT 7:21 PM PDT
Moon 2:46 PM PDT (10/23) 12:46 AM PDT (10/23)
Length of Visible Light 11h 28m
Length of Day
10h 25m
Waxing Gibbous, 67% of the Moon is Illuminated
Oct 23
Waxing Gibbous
Oct 29
Full
Nov 6
Last Quarter
Nov 13
New
Nov 20
First Quarter

Hourly Weather History & Observations

Time (PDT) Temp. Windchill Dew Point Humidity Pressure Visibility Wind Dir Wind Speed Gust Speed Precip Events Conditions
12:02 AM 24.8 °F 19.1 °F 23.0 °F 93% 29.61 in 10.0 mi Variable 4.6 mph - N/A   Overcast
12:09 AM 24.8 °F 16.9 °F 23.0 °F 93% 29.61 in 10.0 mi Variable 6.9 mph - N/A   Overcast
12:38 AM 24.8 °F 16.9 °F 23.0 °F 93% 29.62 in 10.0 mi SW 6.9 mph - N/A   Overcast
12:53 AM 24.1 °F 17.0 °F 21.9 °F 91% 29.73 in 10.0 mi Variable 5.8 mph - N/A   Overcast
1:15 AM 23.0 °F 12.4 °F 21.2 °F 93% 29.63 in 10.0 mi WSW 10.4 mph 19.6 mph N/A   Overcast
1:53 AM 23.0 °F 17.0 °F 21.9 °F 96% 29.76 in 10.0 mi Variable 4.6 mph - N/A   Overcast
2:37 AM 24.8 °F 17.9 °F 21.2 °F 86% 29.65 in 10.0 mi Variable 5.8 mph - N/A   Overcast
2:53 AM 24.1 °F 17.0 °F 23.0 °F 96% 29.75 in 10.0 mi SW 5.8 mph - N/A   Overcast
3:34 AM 23.0 °F 17.0 °F 21.2 °F 93% 29.65 in 10.0 mi Variable 4.6 mph - N/A   Overcast
3:44 AM 23.0 °F 18.4 °F 21.2 °F 93% 29.65 in 10.0 mi WSW 3.5 mph - N/A   Overcast
3:53 AM 23.0 °F 18.4 °F 21.0 °F 92% 29.75 in 10.0 mi SW 3.5 mph - N/A   Mostly Cloudy
4:53 AM 21.9 °F 15.7 °F 21.0 °F 96% 29.77 in 10.0 mi South 4.6 mph - N/A   Clear
5:50 AM 23.0 °F 15.8 °F 21.2 °F 93% 29.66 in 10.0 mi South 5.8 mph - N/A   Mostly Cloudy
5:53 AM 23.0 °F 17.0 °F 21.0 °F 92% 29.78 in 10.0 mi South 4.6 mph - N/A   Mostly Cloudy
6:02 AM 21.2 °F 13.6 °F 21.2 °F 100% 29.66 in 10.0 mi South 5.8 mph - N/A   Scattered Clouds
6:37 AM 21.2 °F 14.9 °F 21.2 °F 100% 29.67 in 2.5 mi South 4.6 mph - N/A   Scattered Clouds
6:39 AM 21.2 °F 13.6 °F 21.2 °F 100% 29.67 in 1.2 mi South 5.8 mph - N/A   Scattered Clouds
6:46 AM 21.2 °F 13.6 °F 21.2 °F 100% 29.67 in 0.5 mi South 5.8 mph - N/A Fog Light Freezing Fog
6:53 AM 21.9 °F 14.5 °F 21.9 °F 100% 29.79 in 0.8 mi South 5.8 mph - N/A   Mist
7:00 AM 21.2 °F 14.9 °F 21.2 °F 100% 29.67 in 3.0 mi South 4.6 mph - N/A   Overcast
7:27 AM 21.2 °F 12.6 °F 21.2 °F 100% 29.68 in 1.0 mi South 6.9 mph - N/A   Mist
7:34 AM 21.2 °F 12.6 °F 21.2 °F 100% 29.69 in 0.5 mi SSE 6.9 mph - N/A Fog Light Freezing Fog
7:49 AM 21.2 °F 12.6 °F 21.2 °F 100% 29.69 in 1.5 mi SSE 6.9 mph - N/A   Overcast
7:51 AM 21.2 °F 12.6 °F 21.2 °F 100% 29.69 in 4.0 mi SSE 6.9 mph - N/A   Overcast
7:53 AM 21.9 °F 12.5 °F 21.0 °F 96% 29.80 in 7.0 mi SSE 8.1 mph - N/A   Overcast
8:14 AM 21.2 °F 12.6 °F 21.2 °F 100% 29.70 in 2.0 mi SSE 6.9 mph - N/A   Overcast
8:20 AM 21.2 °F 12.6 °F 21.2 °F 100% 29.69 in 1.2 mi SSE 6.9 mph - N/A   Overcast
8:30 AM 21.2 °F 11.7 °F 21.2 °F 100% 29.70 in 2.0 mi SSE 8.1 mph - N/A   Overcast
8:47 AM 23.0 °F 17.0 °F 21.2 °F 93% 29.70 in 2.0 mi Variable 4.6 mph - N/A   Overcast
8:53 AM 23.0 °F 15.8 °F 23.0 °F 100% 29.81 in 10.0 mi SSE 5.8 mph - N/A   Overcast
10:05 AM 24.8 °F 19.1 °F 24.8 °F 100% 29.70 in 1.5 mi SSE 4.6 mph - N/A   Overcast
10:21 AM 24.8 °F 20.5 °F 24.8 °F 100% 29.70 in 3.0 mi SSE 3.5 mph - N/A   Overcast
10:36 AM 24.8 °F 17.9 °F 24.8 °F 100% 29.70 in 1.5 mi SSE 5.8 mph - N/A   Overcast
10:39 AM 24.8 °F 19.1 °F 24.8 °F 100% 29.70 in 0.8 mi Variable 4.6 mph - N/A   Overcast
10:53 AM 24.1 °F 16.0 °F 24.1 °F 100% 29.81 in 0.2 mi SSE 6.9 mph - N/A Fog Light Freezing Fog
11:00 AM 24.8 °F 17.9 °F 24.8 °F 100% 29.71 in 0.2 mi SSE 5.8 mph - N/A Fog Light Freezing Fog
11:12 AM 24.8 °F 20.5 °F 24.8 °F 100% 29.71 in 1.0 mi South 3.5 mph - N/A   Overcast
11:22 AM 24.8 °F 17.9 °F 24.8 °F 100% 29.71 in 1.5 mi Variable 5.8 mph - N/A   Overcast
11:25 AM 24.8 °F 20.5 °F 24.8 °F 100% 29.71 in 4.0 mi Variable 3.5 mph - N/A   Overcast
11:53 AM 25.0 °F 20.7 °F 25.0 °F 100% 29.82 in 8.0 mi SSE 3.5 mph - 0.00 in   Overcast
12:13 PM 24.8 °F - 24.8 °F 100% 29.71 in 2.5 mi Calm Calm - 0.00 in Snow Light Snow
12:20 PM 26.6 °F - 24.8 °F 93% 29.71 in 1.2 mi Calm Calm - 0.00 in Snow Light Snow
12:40 PM 26.6 °F - 24.8 °F 93% 29.71 in 0.8 mi Calm Calm - 0.00 in Snow Light Snow
12:48 PM 24.8 °F - 24.8 °F 100% 29.72 in 0.5 mi Calm Calm - 0.00 in Fog , Snow Snow
12:53 PM 26.1 °F - 25.0 °F 96% 29.83 in 0.5 mi Calm Calm - 0.01 in Fog , Snow Snow
1:01 PM 24.8 °F - 24.8 °F 100% 29.72 in 0.2 mi Calm Calm - 0.01 in Fog , Snow Heavy Snow
1:08 PM 24.8 °F - 24.8 °F 100% 29.72 in 0.2 mi Calm Calm - 0.02 in Fog , Snow Heavy Snow
1:53 PM 26.1 °F - 25.0 °F 96% 29.84 in 0.2 mi Calm Calm - 0.07 in Fog , Snow Heavy Snow
2:00 PM 26.6 °F - 24.8 °F 93% 29.73 in 0.8 mi Calm Calm - 0.00 in Snow Light Snow
2:34 PM 26.6 °F - 24.8 °F 93% 29.74 in 0.2 mi Calm Calm - 0.03 in Fog , Snow Heavy Snow
2:53 PM 26.1 °F 19.4 °F 25.0 °F 96% 29.86 in 0.2 mi Variable 5.8 mph - 0.07 in Fog , Snow Heavy Snow
3:05 PM 24.8 °F 19.1 °F 24.8 °F 100% 29.75 in 0.2 mi Variable 4.6 mph - 0.01 in Fog , Snow Snow
3:53 PM 25.0 °F 20.7 °F 25.0 °F 100% 29.89 in 0.2 mi NNW 3.5 mph - 0.04 in Fog , Snow Light Snow
4:10 PM 26.6 °F 22.6 °F 24.8 °F 93% 29.77 in 0.2 mi Variable 3.5 mph - 0.00 in Fog , Snow Light Snow
4:37 PM 24.8 °F - 24.8 °F 100% 29.78 in 0.2 mi Calm Calm - 0.00 in Fog , Snow Light Snow
4:53 PM 25.0 °F 19.3 °F 25.0 °F 100% 29.91 in 0.2 mi NW 4.6 mph - 0.02 in Fog , Snow Snow
5:40 PM 24.8 °F 19.1 °F 24.8 °F 100% 29.80 in 0.5 mi NW 4.6 mph - 0.04 in Fog , Snow Light Snow
5:53 PM 24.1 °F 17.0 °F 23.0 °F 96% 29.93 in 0.8 mi NW 5.8 mph - 0.04 in Snow Light Snow
6:45 PM 24.8 °F 20.5 °F 23.0 °F 93% 29.82 in 0.8 mi Variable 3.5 mph - 0.03 in   Mist
6:53 PM 24.1 °F - 23.0 °F 96% 29.96 in 0.5 mi Calm Calm - 0.03 in Fog Light Freezing Fog
7:00 PM 24.8 °F 20.5 °F 23.0 °F 93% 29.82 in 1.5 mi Variable 3.5 mph - N/A   Overcast
7:02 PM 24.8 °F 19.1 °F 23.0 °F 93% 29.82 in 3.0 mi Variable 4.6 mph - N/A   Overcast
7:18 PM 24.8 °F 19.1 °F 21.2 °F 86% 29.83 in 10.0 mi Variable 4.6 mph - N/A   Overcast
7:32 PM 24.8 °F 19.1 °F 21.2 °F 86% 29.83 in 10.0 mi Variable 4.6 mph - N/A   Overcast
7:53 PM 23.0 °F 15.8 °F 21.0 °F 92% 29.97 in 10.0 mi SW 5.8 mph - N/A   Mostly Cloudy
8:06 PM 23.0 °F 15.8 °F 21.2 °F 93% 29.83 in 10.0 mi SW 5.8 mph - N/A   Scattered Clouds
8:13 PM 23.0 °F 17.0 °F 21.2 °F 93% 29.83 in 10.0 mi SW 4.6 mph - N/A   Mostly Cloudy
8:32 PM 23.0 °F 15.8 °F 21.2 °F 93% 29.84 in 10.0 mi WSW 5.8 mph - N/A   Mostly Cloudy
8:53 PM 23.0 °F 18.4 °F 21.9 °F 96% 29.98 in 8.0 mi SSW 3.5 mph - N/A   Overcast
9:53 PM 24.1 °F 18.2 °F 21.9 °F 91% 29.98 in 7.0 mi Variable 4.6 mph - N/A   Overcast
10:07 PM 23.0 °F 17.0 °F 21.2 °F 93% 29.86 in 9.0 mi Variable 4.6 mph - N/A   Overcast
10:53 PM 24.1 °F 18.2 °F 23.0 °F 96% 29.99 in 5.0 mi SSW 4.6 mph - N/A   Overcast
11:08 PM 23.0 °F 18.4 °F 21.2 °F 93% 29.86 in 10.0 mi SSW 3.5 mph - N/A   Overcast
11:48 PM 23.0 °F 15.8 °F 21.2 °F 93% 29.87 in 1.8 mi South 5.8 mph - N/A   Overcast
11:53 PM 23.0 °F 13.9 °F 23.0 °F 100% 29.99 in 1.5 mi South 8.1 mph - N/A   Overcast